User: anonymous   Login
Location: Unspecified
(0.0000°N, 0.0000°E)
Time: 18:35:02
(UTC+02:00)
Language:

Cosmos 540 Rocket - Orbit

View from above orbital plane
View from above orbital plane
View from above satellite
View from above satellite

Ground track
Ground track

The orbit data is extracted from the following two-line orbital elements,

1  6324U 72104B   17147.52749360 +.00000101 +00000-0 +37909-4 0  9999
2  6324 074.0749 144.2588 0010364 286.7847 073.2172 14.43367908332326
Epoch (UTC): 27 May 2017 12:39:35
Eccentricity: 0.0010364
inclination: 74.0749°
perigee height: 740 km
apogee height: 755 km
right ascension of ascending node: 144.2588°
argument of perigee: 286.7847°
revolutions per day: 14.43367908
mean anomaly at epoch: 73.2172°
orbit number at epoch: 33232

The dashed part of the orbit path shows where the satellite is in the earth's shadow,  

DLR